Location: Bavelincourt
(49.9853°N, 2.4543°E)
Time: 10:35:19
(UTC+00:00)

Daily predictions for brighter satellites

Satellite Brightness Start Highest point End
(mag) Time Altitude Azimuth Time Altitude Azimuth Time Altitude Azimuth
Cosmos 2322 3.8 18:26:41 10° S 18:32:08 53° ESE 18:37:39 10° NE
Cosmos 1066 Rocket 4.4 18:27:20 10° N 18:33:11 65° ENE 18:38:57 10° SSE
Cosmos 2233 Rocket 4.0 18:27:33 10° S 18:33:38 72° E 18:39:48 10° NNE
Cosmos 1802 Rocket 4.5 18:28:27 10° SSW 18:34:37 70° WNW 18:40:56 10° N
Cosmos 1726 1.4 18:33:24 10° S 18:36:07 55° E 18:38:51 10° NNE
Resurs 1-3 3.6 18:32:50 10° SSE 18:37:06 64° ENE 18:41:25 10° N
SAR-Lupe-2 3.5 18:41:29 10° SSE 18:45:03 83° ENE 18:48:40 10° NNW
Cosmos 1315 Rocket 4.4 18:43:27 10° NNE 18:46:16 18° ENE 18:49:05 10° ESE
Meteor PRIRODA 3.3 18:46:34 10° SSE 18:49:49 65° ENE 18:53:06 10° N
ATLAS 2AS CENTAUR R/B 4.2 18:43:22 10° W 18:49:57 36° NNW 18:56:19 10° NE
Cosmos 1125 Rocket 4.1 18:45:16 10° NNW 18:50:09 39° ENE 18:55:01 10° SE
Cosmos 1842 3.3 18:48:09 10° N 18:51:40 47° ENE 18:55:10 10° SSE
USA 59 Rocket 0.2 18:49:31 10° NW 18:53:15 74° SW 18:58:25 10° SE
Cosmos 1536 3.7 18:51:16 10° SSE 18:54:27 26° E 18:57:40 10° NNE
Okean 3 Rocket 4.3 18:50:58 10° SSE 18:54:55 32° E 18:58:52 10° NNE
Cosmos 1707 2.9 18:52:04 10° N 18:55:29 42° ENE 18:58:52 10° SSE
Cosmos 2061 Rocket 4.3 18:49:16 10° SSW 18:55:43 78° W 19:02:12 10° N
Cosmos 1515 Rocket 4.1 18:51:39 10° N 18:55:43 37° ENE 18:59:45 10° SE
COSMOS 2428 2.7 18:50:16 10° SSW 18:55:55 66° ESE 19:01:37 10° NNE
Cosmos 1818 3.8 18:55:34 10° SW 19:01:02 77° NW 19:06:34 10° NE
Okean O Rocket 2.6 18:57:43 10° SE 19:01:33 29° ENE 19:05:23 10° N
Cosmos 2278 Rocket 2.2 19:00:31 10° NNW 19:06:13 79° ENE 19:11:53 10° SSE
USA 306 2.2 19:04:39 10° WSW 19:07:44 86° SSE 19:11:23 10° ENE
CZ-4B DEB 4.3 19:03:51 10° SSE 19:09:22 88° WSW 19:14:54 10° NNW
CZ-4 R/B 1.2 19:06:32 10° SSE 19:10:21 83° ENE 19:14:17 10° NNW
NOSS 2-1 (C) 4.3 19:09:56 10° NW 19:13:36 49° SW 19:18:33 10° SSE
CZ-4B R/B 3.2 19:08:30 10° SSE 19:13:52 62° ENE 19:19:10 10° N
Cosmos 1766 Rocket 3.5 19:10:08 10° S 19:14:29 88° E 19:18:55 10° N
Meteor 2-17 Rocket 4.4 19:09:34 10° N 19:15:39 77° E 19:21:43 10° SSE
Resurs 01 Rocket 1.6 19:11:32 10° SSE 19:15:55 65° ENE 19:20:18 10° N
Helios 1A 2.8 19:12:17 10° NNE 19:16:23 78° ESE 19:20:26 10° S
USA 290 2.5 19:13:23 10° NNW 19:16:41 68° WSW 19:19:57 10° SSE
ADEOS 4.1 19:13:26 10° S 19:18:35 61° WSW 19:23:47 10° NNW
GEOS 3 Rocket 3.8 19:13:53 10° SE 19:19:07 75° SW 19:24:19 10° NW
USA 186 1.7 19:18:00 10° SSE 19:21:11 76° ENE 19:24:26 10° N
CZ-4B R/B 4.1 19:16:47 10° S 19:21:26 54° W 19:26:11 10° NNW
Cosmos 1814 Rocket 4.0 19:16:57 10° SSW 19:22:15 88° WNW 19:27:32 10° NNE
PAYLOAD B 4.3 19:16:53 10° SSE 19:22:30 88° WSW 19:28:09 10° NNW
Cosmos 2360 Rocket 4.3 19:17:44 10° WSW 19:22:35 28° NW 19:27:26 10° NNE
KORONAS-FOTON 4.0 19:18:54 10° NNW 19:22:36 70° W 19:26:15 10° S
Cosmos 1743 4.4 19:19:49 10° SW 19:23:06 35° WNW 19:26:25 10° N
MOS 1-B 4.4 19:18:05 10° SSE 19:23:46 61° ENE 19:29:28 10° N
SPOT 5 3.7 19:22:14 18° ESE 19:24:33 28° ENE 19:28:21 10° N
Okean-O 3.6 19:23:04 19° ESE 19:25:19 30° ENE 19:29:10 10° N
USA 267 4.0 19:21:29 10° ENE 19:27:42 49° N 19:33:56 10° WNW
Cosmos 1408 Rocket 4.0 19:24:32 10° SSE 19:28:37 40° E 19:32:46 10° NNE
ISS -3.2 19:26:24 10° SW 19:29:32 38° SSE 19:30:43 27° ESE
SPOT 1/Viking Rocket 4.4 19:24:44 10° S 19:29:46 52° W 19:34:50 10° NNW
NOSS 3-3 (A) 4.3 19:25:24 10° S 19:30:07 32° ESE 19:35:31 10° NE
CZ-4B R/B 3.3 19:26:36 10° S 19:30:26 63° WSW 19:34:29 10° NNW
Kosmos-1783 4.0 19:30:20 10° WSW 19:32:13 28° NW 19:33:12 16° NNE
SL-08 R/B 3.9 19:28:03 10° N 19:32:55 63° WNW 19:37:46 10° SSW
Cosmos 2237 Rocket 2.2 19:29:28 10° S 19:34:56 56° ESE 19:40:26 10° NE
CSL-04 Rocket 3.6 19:32:17 10° SSE 19:37:39 85° ENE 19:43:00 10° NNW
Aureole 3 Rocket 4.1 19:31:26 10° SSE 19:37:40 42° E 19:42:17 10° NNE
Cosmos 2219 Rocket 3.9 19:34:39 10° WSW 19:39:50 35° NW 19:45:02 10° NNE
Cosmos 1356 Rocket 4.0 19:38:27 10° NNW 19:42:35 58° W 19:46:41 10° S
Meteor 1-14 Rocket 4.4 19:38:11 10° SSW 19:43:42 73° WNW 19:49:16 10° N
Lacrosse 4 Rocket 4.2 19:41:48 10° WNW 19:44:16 15° WSW 19:46:44 10° SW
Meteor 1-4 Rocket 4.3 19:43:24 10° NW 19:45:33 22° W 19:47:41 10° SSW
Meteor 1-11 Rocket 3.6 19:41:08 10° S 19:46:42 67° E 19:52:12 10° NNE
MOS 1 Rocket 4.1 19:45:38 26° ESE 19:47:50 39° ENE 19:52:44 10° N
CARTOSAT-1 4.1 19:46:47 10° S 19:50:57 57° W 19:55:10 10° NNW
ATLAS CENTAUR R/B 1.0 19:48:24 10° SSW 19:51:52 53° SE 19:54:53 14° NE
Cosmos 158 Rocket 3.8 19:47:06 10° S 19:51:53 59° ESE 19:56:40 10° NNE
NOSS 3-4 (A) 4.2 19:46:33 10° NW 19:52:52 48° NE 19:57:11 24° E
NOSS 3-4 (C) 4.2 19:46:39 10° NW 19:52:58 48° NE 19:57:18 24° E
Cosmos 1805 Rocket 3.7 19:52:47 28° SSE 19:54:43 48° E 19:58:55 10° NNE
Cosmos 1428 Rocket 4.4 19:51:38 10° N 19:57:46 75° E 20:02:18 19° SSE
Cosmos 1733 3.2 19:55:33 10° SSW 19:58:58 66° WNW 20:02:24 10° N
In-Cosmos 22 4.5 19:54:46 10° NNW 20:00:28 70° W 20:06:00 10° S
USA 276 3.5 19:58:24 10° W 20:00:38 23° SW 20:00:38 23° SW
Cosmos 2369 Rocket 3.0 19:57:53 10° NNW 20:03:10 36° NE 20:05:12 28° E
SL-24 R/B 4.5 20:01:56 33° SE 20:03:50 54° E 20:08:31 10° N
Cosmos 1980 3.7 19:58:47 10° SSW 20:04:28 87° WNW 20:10:12 10° NNE
Meteor 1-21 4.4 20:02:21 10° N 20:08:02 58° ENE 20:10:23 34° SE
Sich 1 2.8 20:07:33 26° S 20:09:53 74° E 20:14:12 10° NNE
Cosmos 1943 Rocket 2.7 20:04:53 10° NW 20:10:14 54° WSW 20:14:05 19° S
Cosmos 1707 Rocket 4.2 20:06:49 10° N 20:10:57 36° ENE 20:11:04 36° ENE
DELTA 2 DEB (DPAF) 4.1 20:07:47 10° NNE 20:11:47 48° E 20:11:47 48° E
NOSS 0 Rocket 4.4 20:06:53 10° SW 20:13:05 65° NW 20:19:20 10° NNE
Cosmos 2298 Rocket 4.0 20:08:48 10° NNW 20:14:09 89° WSW 20:16:27 35° SSE
Terra 2.2 20:13:52 39° E 20:14:32 42° ENE 20:18:58 10° N
Nadezhda 4 Rocket 4.4 20:08:53 10° NNW 20:15:04 64° W 20:21:17 10° S
ACS3 Solar Sail 2.0 20:09:35 14° S 20:15:13 77° W 20:21:40 10° NNW
ERS-1 Rocket 3.2 20:14:03 41° ESE 20:15:17 51° ENE 20:20:09 10° N
Cosmos 2195 Rocket 4.4 20:09:08 10° N 20:15:17 87° E 20:19:11 24° S
Cosmos 2150 Rocket 3.9 20:10:39 10° NNW 20:15:50 87° WSW 20:17:56 37° SSE
USA 32 4.0 20:11:13 10° N 20:16:30 90° E 20:19:24 27° S
Cosmos 1570 Rocket 4.1 20:11:52 10° SSW 20:17:10 79° WNW 20:22:27 10° NNE
Cosmos 1975 3.3 20:18:58 42° NE 20:18:58 42° NE 20:21:57 10° NNE
OPS 6432 4.4 20:18:24 10° NW 20:21:15 67° WNW 20:21:15 67° WNW
Cosmos 1805 3.0 20:21:35 62° SSW 20:22:08 84° W 20:25:49 10° N
Cosmos 1315 Rocket 3.7 20:18:46 10° NNW 20:22:36 47° W 20:24:27 26° SSW
Cosmos 2026 Rocket 3.9 20:16:21 10° N 20:22:38 84° E 20:25:51 30° SSE
Cosmos 1092 Rocket 3.9 20:16:45 10° N 20:23:07 83° E 20:26:28 30° SSE
Ariane Rocket 3.5 20:24:21 38° E 20:24:53 39° ENE 20:29:34 10° N
Meteor 2-12 Rocket 4.4 20:20:14 10° N 20:26:26 75° ENE 20:28:56 38° SSE
Cosmos 836 Rocket 4.4 20:22:22 10° SSW 20:27:40 87° ESE 20:33:00 10° NNE
IRS-1A Rocket 4.2 20:26:27 41° SE 20:28:31 75° ENE 20:34:12 10° NNW
Okean 3 4.0 20:29:21 10° N 20:32:45 43° NE 20:32:45 43° NE
SL-16 R/B 2.2 20:35:16 52° ESE 20:35:21 52° ESE 20:40:51 10° NE
Okean O Rocket 2.9 20:35:02 19° SSW 20:37:42 36° W 20:41:49 10° NNW
Cosmos 1634 Rocket 3.9 20:36:32 33° S 20:39:31 75° E 20:45:52 10° NNE
Cosmos 1656 Rocket 3.6 20:34:30 10° NNW 20:40:13 78° ENE 20:41:19 58° SE
SL-14 R/B 3.8 20:36:33 10° NNW 20:40:15 52° W 20:40:36 50° WSW
USA 306 3.4 20:37:15 10° W 20:40:34 44° N 20:40:34 44° N
USA 59 Rocket 3.0 20:40:58 10° W 20:42:33 12° WSW 20:44:16 10° SW
ATLAS 2AS CENTAUR R/B 4.4 20:37:02 10° NW 20:42:50 26° N 20:48:27 10° ENE
IRS-1C Rocket 4.0 20:45:02 58° SSE 20:46:06 89° WSW 20:51:26 10° NNW
Cosmos 773 Rocket 3.9 20:45:39 39° SSW 20:47:41 84° ESE 20:53:01 10° NNE
Cosmos 2278 Rocket 4.4 20:45:41 10° NW 20:49:38 20° W 20:53:35 10° SW
Okean 1-7 4.1 20:45:44 10° N 20:48:39 33° NE 20:48:39 33° NE
Cosmos 2263 4.4 20:45:42 10° NNW 20:51:21 56° NE 20:51:55 53° E
Resurs 01 Rocket 4.3 20:50:00 10° SW 20:52:47 16° W 20:55:34 10° NW
Cosmos 2228 Rocket 3.1 20:50:48 10° NNW 20:55:20 81° W 20:55:20 81° W
Cosmos 1743 Rocket 4.5 20:56:20 30° SW 20:58:00 45° WNW 21:02:12 10° N
SPOT 3 Rocket 3.4 21:00:55 73° ENE 21:00:55 73° ENE 21:06:01 10° NNW
Okean-O 3.9 21:00:31 31° SW 21:01:37 35° W 21:05:41 10° NNW
SPOT 5 3.8 21:01:22 34° SW 21:02:28 39° W 21:06:40 10° NNW
Cosmos 2142 Rocket 4.3 21:02:36 64° ESE 21:02:48 65° E 21:08:53 10° NNE
ISS -1.1 21:02:51 10° W 21:03:42 17° W 21:03:42 17° W
NOSS 3-3 (C) 4.0 21:00:45 10° SW 21:06:15 74° NW 21:12:51 10° NE
USA 267 3.4 21:08:22 47° E 21:10:15 66° NNE 21:16:43 10° WNW
Cosmos 724 4.3 21:15:31 66° NE 21:15:31 66° NE 21:20:31 10° NE
Cosmos 2180 Rocket 4.4 21:17:01 71° ESE 21:17:09 72° E 21:23:31 10° NNE
Cosmos 2237 Rocket 3.9 21:14:17 10° WSW 21:19:18 32° NW 21:24:21 10° NNE
NOSS 3-3 (A) 4.3 21:15:03 10° WSW 21:20:33 60° NW 21:27:07 10° NE
Cosmos 2279 Rocket 3.9 21:19:59 63° SSW 21:21:05 83° W 21:27:21 10° N
Cosmos 1607 4.0 21:18:09 10° SW 21:24:38 83° NW 21:31:07 10° NE
Cosmos 2297 4.1 21:23:26 10° NW 21:28:56 55° WSW 21:28:59 55° WSW
ATLAS CENTAUR R/B 3.3 21:26:27 10° W 21:29:30 24° NNW 21:29:51 24° NNW
Spot 2 Rocket 4.0 21:31:06 53° W 21:31:06 53° W 21:35:50 10° NNW
NOSS 3-4 (A) 4.0 21:37:20 10° NW 21:44:03 59° SW 21:44:37 58° SW
NOSS 3-4 (C) 4.0 21:37:27 10° NW 21:44:10 60° SW 21:44:43 58° SW
Cosmos 2369 Rocket 2.8 21:41:52 10° NW 21:46:58 48° W 21:46:58 48° W
Terra 3.5 21:52:34 27° W 21:52:34 27° W 21:56:17 10° NW
ACS3 Solar Sail 4.3 21:56:47 10° WSW 22:00:19 15° W 22:03:52 10° NW
Ariane Rocket 4.4 22:04:29 32° W 22:04:29 32° W 22:08:26 10° NNW
Cosmos 2266 Rocket 4.4 22:03:47 10° NNW 22:09:40 56° W 22:09:40 56° W
SL-16 R/B 3.6 22:17:00 23° W 22:19:42 34° NW 22:24:52 10° NNE
ATLAS 2AS CENTAUR R/B 3.6 22:29:08 10° NW 22:35:36 40° NNE 22:36:31 38° NE
Cosmos 1943 4.4 22:41:44 38° N 22:41:44 38° N 22:45:19 10° NNE
USA 267 4.2 22:55:43 38° W 22:55:43 38° W 22:59:48 10° WNW
Cosmos 1697 Rocket 4.2 22:48:30 10° NNW 22:52:28 31° NNE 22:52:28 31° NNE
Cosmos 2344 3.9 23:19:17 10° NW 23:27:14 82° WSW 23:27:14 82° WSW
Cosmos 1980 Rocket 3.7 23:48:43 10° NNW 23:52:14 33° N 23:52:14 33° N
